Regional Weather Roundup
Issued by NWS Kansas City/Pleasant Hill, MO

Home | Current Version | Previous Version | Text Only | Print | Product List | Glossary On
Versions: 1 2 3 4 5 6 7 8 9 10 11 12 13 14 15 16 17 18 19 20 21 22 23 24 25 26 27 28 29 30 31 32 33 34 35 36 37 38 39 40 41 42 43 44 45 46 47 48 49 50
000
ASUS43 KEAX 301110
RWREAX

WEATHER ROUNDUP FOR EASTERN KANSAS AND NORTHWEST MISSOURI
NATIONAL WEATHER SERVICE KANSAS CITY/PLEASANT HILL MO
600 AM CDT SAT JUL 30 2016

KSZ040-057-103>105-MOZ028-029-037-043-301200-
...KANSAS CITY METROPOLITAN AREA...

CITY           SKY/WX    TMP DP  RH WIND       PRES   REMARKS
K.C. INTL      PTCLDY    63  60  90 NE5       30.00F
K.C. DOWNTOWN  CLEAR     68  63  84 N3        30.00R
LEES SUMMIT    PTCLDY    67  63  87 N3        30.02R
OLATHE - IXD   PTCLDY    64  63  96 CALM      30.01S
OLATHE - OJC   CLEAR     66  62  87 NE6       30.01S
LAWRENCE       CLEAR     62  61  96 NW3       30.01R

$$

MOZ001>008-011>017-020>025-030>033-038>040-044>046-053-054-301200-
...NORTHERN AND CENTRAL MISSOURI...

CITY           SKY/WX    TMP DP  RH WIND       PRES   REMARKS
ST. JOSEPH     MOCLDY    61  60  97 N3        30.02R FOG
MOSBY          MOSUNNY   61  61 100 N3        30.00F
WHITEMAN AFB   CLEAR     63  63 100 NE1       29.99S
CLINTON        CLOUDY    64  64 100 CALM      30.00S
SEDALIA        CLEAR     65  63  93 NW5       30.01R
WARSAW         NOT AVBL
CHILLICOTHE      N/A     63  61  93 CALM      30.01R
KIRKSVILLE     CLOUDY    66  64  93 NW3       30.00S

$$

MOZ041-047>049-056>058-063>065-088>090-097-301200-
...EASTERN AND SOUTHERN MISSOURI...

CITY           SKY/WX    TMP DP  RH WIND       PRES   REMARKS
ST. LOUIS INTL PTCLDY    72  67  84 W5        29.97R
SPIRIT OF STL  CLEAR     67  67 100 SW3       29.96R
COLUMBIA       CLOUDY    69  66  90 CALM      30.00R
JEFFERSON CITY PTCLDY    67  66  97 CALM      29.98R
ROLLA          CLEAR     65  64  97 CALM      29.99R
OSAGE BEACH    FOG       68  68 100 CALM      30.00S VSB<1/4
SPRINGFIELD    CLEAR     68  66  93 CALM      30.00R FOG
BRANSON        MOCLDY    68  68 100 CALM      30.02R FOG
JOPLIN         CLEAR     68  67  96 CALM      30.00R
WEST PLAINS    CLOUDY    68  66  93 CALM      30.02R

$$

IAZ060-094-KSZ022-034>040-054-083-096-NEZ052-066-093-301200-
...KANSAS...SOUTHEAST NEBRASKA AND IOWA...

CITY           SKY/WX    TMP DP  RH WIND       PRES   REMARKS
TOPEKA         CLEAR     64  62  93 N3        30.00S
MANHATTAN      CLOUDY    67  65  93 NE3       30.00F
EMPORIA        CLEAR     67  66  97 CALM      30.00F
CHANUTE        CLEAR     67  66  97 CALM      29.99S FOG
WICHITA        MOCLDY    73  69  87 SE5       29.99S
OMAHA          PTCLDY    62  59  90 CALM      30.01F
LINCOLN        CLEAR     61  59  93 CALM      30.02F
FALLS CITY     CLEAR     59  59 100 N3        30.01F
LAMONI         CLEAR     62  61  96 N6        30.01S
DES MOINES     DRIZZLE   68  65  90 NW6       30.00R

$$




USA.gov is the U.S. government's official web portal to all federal, state and local government web resources and services.